Regional Weather Roundup
Issued by NWS Wakefield, VA

Home | Current Version | Previous Version | Text Only | Print | Product List | Glossary Off
Versions: 1 2 3 4 5 6 7 8 9 10 11 12 13 14 15 16 17 18 19 20 21 22 23 24 25 26 27 28 29 30 31 32 33 34 35 36 37 38 39 40 41 42 43 44 45 46 47 48 49 50

000
ASUS41 KAKQ 302015
RWRAKQ

REGIONAL WEATHER ROUNDUP
NATIONAL WEATHER SERVICE WAKEFIELD VA
400 PM EDT TUE JUN 30 2015

Note: "fair" indicates few or no clouds below 12,000 feet with no
significant weather and/or obstructions to visibility. * = Denotes
station may not report precipitation (e.g., rain,snow,etc.),
thunder or fog.

VAZ042-051-052>054-056-302100-
NORTHERN VIRGINIA

CITY           SKY/WX    TMP DP  RH WIND       PRES   REMARKS
WASH NATIONAL  PTSUNNY   89  69  51 S16G24    29.82F
DULLES         PTSUNNY   84  67  56 SW13      29.82F
FORT BELVOIR   SUNNY     87  67  52 VRB7      29.81F
QUANTICO       MOSUNNY   85  69  58 SW10      29.82F
FREDERICKSBRG* MOSUNNY   89  67  47 SW12G17   29.81F
STAFFORD*      SUNNY     85  67  55 SW9       29.86F
WARRENTON      SUNNY     86  71  61 SW10      29.82F
CULPEPER*      SUNNY     83  67  57 SW9       29.83F
MANASSAS*      MOSUNNY   84  68  58 SW9         N/A
LEESBURG*      SUNNY     88  68  51 S20       29.82F
WINCHESTER     LGT RAIN  81  70  69 SW3       29.82F
FRONT ROYAL*   MOCLDY    82  70  65 S8        29.82F
LURAY*         FAIR      84  64  51 SW9       29.84F
$$

VAZ048-049-060>072-079>083-302100-
CENTRAL AND SOUTH CENTRAL VIRGINIA

CITY           SKY/WX    TMP DP  RH WIND       PRES   REMARKS
RICHMOND       MOSUNNY   85  67  54 S13       29.85F THUNDER
CHESTERFIELD*  FAIR      88  64  45 S9        29.86F
PETERSBURG*    MOSUNNY   89  74  60 SW7       29.86F HX  98
HANOVER        SUNNY     88  66  48 SW10      29.86F
TAPPAHANNOCK*  MOSUNNY   87  65  47 S5        29.84F
QUINTON*       CLOUDY    77  71  79 SW6       29.86S
CHARLOTTSVILLE SUNNY     83  67  58 SW12      29.84F
GORDONSVILLE*  FAIR      84  64  51 SW12      29.83F
ORANGE*        SUNNY     86  66  51 SE12      29.85F
LOUISA*        SUNNY     86  70  58 SW6       29.84F
BUMPASS*       FAIR      84  68  58 SW9       29.84F
FARMVILLE*     MOSUNNY   87  67  50 SW6       29.85F
CREWE*         FAIR      87  64  46 SW7       29.87F
FORT PICKETT*  FAIR      87  67  50 W7G16     29.87F
CHASE CITY*    FAIR      89  68  50 CALM      29.86F
CLARKSVILLE*   FAIR      88  68  51 SE3       29.86F
SOUTH HILL*    CLOUDY    84  70  63 S5        29.92F
LAWRENCEVILLE* NOT AVBL
EMPORIA*       MOSUNNY   88  68  51 S3        29.87F
$$

VAZ088>098-302100-
SOUTHEAST VIRGINIA

CITY           SKY/WX    TMP DP  RH WIND       PRES   REMARKS
NORFOLK        MOSUNNY   88  64  44 S17       29.86F
VIRGINIA BEACH MOSUNNY   92  67  43 S14       29.86F HX  95
NORFOLK NAVAL  PTSUNNY   89  65  44 SW10      29.87F
WEST POINT*    MOSUNNY   90  64  42 S8        29.85F
SALUDA*        FAIR      89  69  52 S12G20    29.84F
NEWPORT NEWS   SUNNY     89  68  49 S13       29.85F
LANGLEY AFB    MOSUNNY   90  68  48 S16       29.84F
FORT EUSTIS    SUNNY     89  72  57 S7        29.83F HX  96
WILLIAMSBURG*  SUNNY     93  70  46 S8        29.85F HX  99
HR EXEC AP*    FAIR      90  68  48 SW10G17   29.88F
FRANKLIN*      MOSUNNY   89  67  49 S13       29.86F
WAKEFIELD      MOSUNNY   90  69  50 SW10      29.85F
$$

VAZ020-022-025-037-045-302100-
WEST CENTRAL AND SOUTHWEST VIRGINIA

CITY           SKY/WX    TMP DP  RH WIND       PRES   REMARKS
STAUNTON*      MOSUNNY   84  64  50 SW13      29.88F
WAYNESBORO*    FAIR      82  63  51 SW8       29.89F
HOT SPRINGS VA MOSUNNY   74  59  58 W10       29.99F
LYNCHBURG      MOSUNNY   83  64  52 S13       29.89F
DANVILLE       SUNNY     89  66  46 VRB6      29.87F
SOUTH BOSTON*  MOCLDY    87  67  52 MISG      29.86F
MARTINSVILLE     N/A    N/A N/A N/A MISG        N/A
ROANOKE        MOSUNNY   85  62  46 SW10      29.90F
BLACKSBURG     MOSUNNY   81  64  54 SW9       29.97F
DUBLIN*        PTSUNNY   82  64  54 W12       29.95F
MARION*        SUNNY     78  62  59 W10       30.00F
HILLSVILLE*    MOSUNNY   78  65  63 SW9       29.97F
RICHLANDS*     FAIR      74  63  66 SW9       29.98S
WISE*          PTSUNNY   75  59  57 SW9G17    29.99S
ABINGDON*      MOSUNNY   79  66  63 W8        29.96F
$$

MDZ021>025-VAZ099-100-302100-
SOUTHERN MARYLAND AND THE DELMARVA PENINSULA

CITY           SKY/WX    TMP DP  RH WIND       PRES   REMARKS
PATUXENT RIVER PTSUNNY   85  73  67 SE10      29.82F THUNDER
BAY BRIDGE APT   N/A     86  68  54 SE13      29.82F
LEONARDTOWN    PTSUNNY   81  68  65 CALM      29.85F
DOVER          MOSUNNY   83  72  68 SE17G23   29.82F
GEORGETOWN     MOSUNNY   85  71  63 S20       29.86F
EASTON         MOSUNNY   88  70  55 S16G25    29.87F
CAMBRIDGE      SUNNY     86  66  51 S13G23    29.84F
SALISBURY      MOSUNNY   85  70  60 SE14G22   29.86F
OCEAN CITY     SUNNY     79  72  79 VRB7G16   29.88F
WALLOPS ISLAND MOSUNNY   81  76  84 S15       29.89F
ACCOMACK*      SUNNY     86  70  58 S18       29.87F
$$

NCZ012>017-030>032-302100-
NORTH CENTRAL AND EASTERN NORTH CAROLINA

CITY           SKY/WX    TMP DP  RH WIND       PRES   REMARKS
ROANOKE RAPIDS FAIR      90  68  48 SW13      29.86F
RALEIGH        MOSUNNY   91  67  44 W8        29.87F
ELIZABETH CITY SUNNY     88  66  48 S13G21    29.89F HAZE
AHOSKIE*       SUNNY     89  67  49 S7        29.86F
EDENTON*         N/A     90  68  49 S13G18    29.89F
CURRITUCK*     SUNNY     90  60  36 S8        29.90F
KILL DEVIL HLS SUNNY     92  69  46 S7        29.90F HX  96
MANTEO         SUNNY     87  72  60 S15       29.92F
CAPE HATTERAS  SUNNY     83  72  69 SW15      29.95F
TARBORO*         N/A     92  65  40 S9G16     29.88F
GOLDSBORO      SUNNY     92  68  46 S15       29.86F HX  96
WASHINGTON     SUNNY     90  67  46 S14       29.89F
GREENVILLE     SUNNY     91  68  46 SW14G21   29.90F HX  95
NEW BERN       MOSUNNY   89  70  53 S12G20    29.93F
WILMINGTON     MOSUNNY   89  69  51 S15       29.93F
$$

VAZ048-302100-
ELSEWHERE

CITY           SKY/WX    TMP DP  RH WIND       PRES   REMARKS
HARRISBURG PA  PTSUNNY   82  68  62 NW6       29.79F
BALTIMORE      PTSUNNY   82  72  71 S6        29.81F
ANNAPOLIS      PTSUNNY   83  71  67 S15G24    29.82F
ANDREWS AFB    SUNNY     85  72  65 SW14      29.81F
PHILADELPHIA   CLOUDY    83  62  49 S16G22    29.85F THUNDER
HENDERSON NC   MOSUNNY   88  62  42 S7        29.87F
GREENSBORO     PTSUNNY   90  60  36 W7G18     29.87F
ROCKY MOUNT    MOSUNNY   93  67  42 SW12G20   29.87F HX  96
$$

VAZ100-302100-
MARINE

STATION/POSITION TIME  TEMP    WIND        PRES    WAVE   SWELL
                       AIR SEA DIR/SP/G            HT/PER HT/PER
                 (UTC) (F)     (DEG/KT/KT) (MB)    (FT/S) (FT/S)
BRANDYWINE LGT   1900   74 75  170/ 23/ 25 1012.0F
CAPE MAY NJ      1900   76 78  140/ 14/ 19 1011.9F
LEWES DE         1900   79 72  160/ 14/ 19 1011.7F
15NM E FENWICK I 1950   75 73              1011.8F   3/ 7
OCEAN-CITY-INLET 1900   77 77  180/ 11/ 14 1012.6F
WACHAPREAGUE VA  1900   81 82  170/ 12/ 17 1012.3F
GOOSES REEF MD   2000   80 78  170/ 16/ 19 1010.8F
COVE POINT MD    1900   80     180/ 23/ 25 1011.4F
SOLOMONS ISLAND  1900      81                N/A
BISHOPS HEAD MD  1900   81     160/ 16/ 19 1011.1F
PINEY POINT MD   1900          200/ 14/ 15   N/A
CAMBRIDGE MD     1900   85 79  170/ 12/ 20 1010.8F
LEWISETTA VA     1900   85 81  190/ 11/ 14 1010.6F
RAPPAHANNOCK LGT 1900          160/ 12/ 14 1012.2F
STINGRAY PT      2000   82 81  160/ 16/ 17 1010.6F   2/ 3
YORK RVR RNG VA  1900   86     210/ 14/ 16 1010.9F
YORKTOWN VA      1900   87 80  210/  8/ 14 1011.2F
JAMESTOWN VA     2000   87 83  200/ 10/ 16   N/A
DOMINION TERM VA 1900   86     220/ 12/ 16 1011.6F
KIPTOPEKE VA     1900      85  170/ 18/ 21   N/A
CHES BAY BRIDGE  1900   87 79  180/  9/ 15 1011.4F
CAPE HENRY VA    1900   83     140/ 13/ 17 1010.4F
CHESAPEAKE LGHT  1900   79     160/ 22/ 23 1012.7F
WILLOUBY STN VA  1900   87     220/ 11/ 13 1012.5F
CAPE HENRY BUOY  1928      78                N/A     3/ 8
1ST LANDING BUOY 2000      80              1011.0F   2/ 4
CAPE CHARLES BUO 1926      78                N/A     3/ 8   2/ 8
OFFSHORE WE BUOY 1911      78                N/A     3/ 8   2/ 8
64NM E OF VA BCH 1950   78 76  190/ 14/ 16 1012.9F   4/ 8   3/ 8
DUCK PIER NC     1900   86 74  210/  9/ 14 1012.3F
44100 DUCK FRF   1924      77                N/A     3/ 8
44056 DUCK FRF   1911      78                N/A     2/ 8
OREGON INLET NC  1900   82 82  190/ 15/ 18 1014.0F
HATTERAS NC      1900   84 82  190/  7/ 12 1014.3F
DIAMOND SHLS NC  1950   83 83  210/ 16/ 17 1014.2F   3/ 7   2/ 8
CAPE LOOKOUT NC  2000   83     200/ 14/ 17 1013.9F
$$



USA.gov is the U.S. government's official web portal to all federal, state and local government web resources and services.